This demonstration page uses our WeatherBlox Daily Observations layout. Learn more.

Left ArrowRight Arrow

39.51506, -84.39828

Hourly Observations for January 15, 2015

Temp ( °F °C ) Dew Point ( °F °C ) Humidity (%) Winds ( mph kmh ) Pressure ( in mb ) Visibility ( mi km ) Precip ( " mm )
12:15 am 00:15 Mostly Cloudy 21 -6.2 16 -9.1 80 80 Calm 30.33 1027 10 16 0.00 0.00
12:35 am 00:35 Cloudy 21 -6.3 16 -9 81 81 Calm 30.33 1027 10 16 0.00 0.00
12:55 am 00:55 Cloudy 21 -6.3 16 -8.8 83 83 Calm 30.33 1027 10 16 0.00 0.00
1:15 am 01:15 Cloudy 21 -6.1 17 -8.6 83 83 Calm 30.33 1027 10 16 0.00 0.00
1:35 am 01:35 Cloudy 22 -5.6 17 -8.5 80 80 Calm 30.33 1027 10 16 0.00 0.00
1:55 am 01:55 Cloudy 22 -5.6 17 -8.5 80 80 Calm 30.33 1027 10 16 0.00 0.00
2:15 am 02:15 Cloudy 22 -5.3 17 -8.1 81 81 Calm 30.27 1025 10 16 0.00 0.00
2:35 am 02:35 Cloudy 22 -5.4 17 -8.3 80 80 Calm 30.27 1025 10 16 0.00 0.00
2:55 am 02:55 Cloudy 23 -5.2 17 -8.5 78 78 Calm 30.27 1025 10 16 0.00 0.00
3:15 am 03:15 Cloudy 23 -5 17 -8.5 77 77 Calm 30.27 1025 10 16 0.00 0.00
3:35 am 03:35 Cloudy 23 -4.8 18 -8 79 79 Calm 30.27 1025 10 16 0.00 0.00
3:55 am 03:55 Cloudy 23 -5 18 -8 80 80 Calm 30.27 1025 10 16 0.00 0.00
4:15 am 04:15 Cloudy 24 -4.5 18 -7.6 79 79 Calm 30.24 1024 10 16 0.00 0.00
4:35 am 04:35 Cloudy 24 -4.2 19 -7.2 80 80 Calm 30.24 1024 10 16 0.00 0.00
4:55 am 04:55 Cloudy 24 -4.2 19 -7.5 78 78 Calm 30.24 1024 10 16 0.00 0.00
5:15 am 05:15 Cloudy 24 -4.2 18 -7.6 77 77 Calm 30.24 1024 10 16 0.00 0.00
5:35 am 05:35 Cloudy 24 -4.2 18 -8 75 75 Calm 30.24 1024 10 16 0.00 0.00
5:55 am 05:55 Cloudy 24 -4.2 18 -7.7 77 77 Calm 30.24 1024 10 16 0.00 0.00
6:15 am 06:15 Mostly Cloudy 24 -4.2 18 -7.8 76 76 Calm 30.24 1024 10 16 0.00 0.00
6:35 am 06:35 Partly Cloudy 24 -4.2 18 -8 75 75 Calm 30.24 1024 10 16 0.00 0.00
6:55 am 06:55 Cloudy 24 -4.2 18 -7.7 77 77 Calm 30.24 1024 10 16 0.00 0.00
7:15 am 07:15 Cloudy 25 -4 19 -7.5 77 77 Calm 30.24 1024 10 16 0.00 0.00
7:35 am 07:35 Cloudy 26 -3.5 19 -7.3 75 75 Calm 30.24 1024 10 16 0.00 0.00
7:55 am 07:55 Cloudy 26 -3.4 19 -7 76 76 Calm 30.24 1024 10 16 0.00 0.00
8:15 am 08:15 Mostly Cloudy 26 -3.5 19 -7.1 76 76 Calm 30.21 1023 7 11 0.00 0.00
8:35 am 08:35 Partly Cloudy 24 -4.2 18 -7.6 77 77 Calm 30.24 1024 10 16 0.00 0.00
8:55 am 08:55 Sunny 24 -4.2 19 -7 81 81 Calm 30.24 1024 7 11 0.00 0.00
9:15 am 09:15 Sunny 27 -2.8 20 -6.4 77 77 SW 3 6 30.24 1024 10 16 0.00 0.00
9:35 am 09:35 Sunny 29 -1.5 21 -6.1 71 71 SW 5 7 30.24 1024 10 16 0.00 0.00
9:55 am 09:55 Sunny 29 -1.5 20 -6.6 69 69 WSW 7 11 30.24 1024 10 16 0.00 0.00
10:15 am 10:15 Sunny 30 -1.3 19 -7.3 64 64 SW 12 19 30.24 1024 10 16 0.00 0.00
10:35 am 10:35 Sunny 31 -0.5 19 -7.1 61 61 WSW 9 15 30.24 1024 10 16 0.00 0.00
10:55 am 10:55 Sunny 32 0 18 -7.7 57 57 WSW 8 13 30.24 1024 10 16 0.00 0.00
11:15 am 11:15 Sunny 33 0.3 18 -7.7 55 55 SSW 9 15 30.21 1023 10 16 0.00 0.00
11:35 am 11:35 Sunny 34 1.2 17 -8.5 49 49 WSW 9 15 30.21 1023 10 16 0.00 0.00
11:55 am 11:55 Sunny 34 1.2 14 -10.1 43 43 SW 10 17 30.21 1023 10 16 0.00 0.00
12:15 pm 12:15 Sunny 34 1.2 13 -10.4 42 42 SW 9 15 30.18 1022 10 16 0.00 0.00
12:35 pm 12:35 Sunny 35 1.6 10 -12.4 35 35 W 10 17 30.18 1022 10 16 0.00 0.00
12:55 pm 12:55 Sunny 37 2.6 12 -10.9 37 37 SW 10 17 30.18 1022 10 16 0.00 0.00
1:15 pm 13:15 Sunny 37 2.6 10 -12.3 33 33 WSW 9 15 30.18 1022 10 16 0.00 0.00
1:35 pm 13:35 Sunny 37 2.6 8 -13.6 29 29 SW 12 19 30.15 1021 10 16 0.00 0.00
1:55 pm 13:55 Sunny 37 2.9 7 -14 28 28 SW 13 20 30.15 1021 10 16 0.00 0.00
2:15 pm 14:15 Sunny 39 4 8 -13.2 28 28 W 13 20 30.15 1021 10 16 0.00 0.00
2:35 pm 14:35 Sunny 39 4 9 -12.6 29 29 WSW 9 15 30.12 1020 10 16 0.00 0.00
2:55 pm 14:55 Sunny 39 4 11 -11.9 31 31 W 10 17 30.12 1020 10 16 0.00 0.00
3:15 pm 15:15 Sunny 39 4 10 -12.4 29 29 SW 10 17 30.12 1020 10 16 0.00 0.00
3:35 pm 15:35 Sunny 39 4 10 -12.2 30 30 W 10 17 30.12 1020 10 16 0.00 0.00
3:55 pm 15:55 Sunny 39 4 10 -12.1 30 30 W 9 15 30.12 1020 10 16 0.00 0.00
4:15 pm 16:15 Sunny 39 4 10 -12 30 30 W 9 15 30.12 1020 10 16 0.00 0.00
4:35 pm 16:35 Sunny 39 4 12 -11 33 33 WSW 7 11 30.12 1020 10 16 0.00 0.00
4:55 pm 16:55 Sunny 39 3.9 14 -10.2 35 35 WSW 9 15 30.12 1020 10 16 0.00 0.00
5:15 pm 17:15 Sunny 37 2.6 12 -10.9 37 37 WSW 5 7 30.15 1021 10 16 0.00 0.00
5:35 pm 17:35 Sunny 36 2.3 15 -9.3 42 42 WSW 6 9 30.12 1020 10 16 0.00 0.00
5:55 pm 17:55 Clear 34 1.2 15 -9.4 46 46 WSW 6 9 30.12 1020 10 16 0.00 0.00
6:15 pm 18:15 Clear 34 1.2 16 -8.9 47 47 WSW 5 7 30.15 1021 10 16 0.00 0.00
6:35 pm 18:35 Clear 34 0.9 20 -6.9 56 56 W 3 6 30.15 1021 10 16 0.00 0.00
6:55 pm 18:55 Clear 30 -1.2 19 -7.4 63 63 WSW 3 6 30.15 1021 10 16 0.00 0.00
7:15 pm 19:15 Clear 31 -0.7 19 -7 63 63 SW 3 6 30.15 1021 10 16 0.00 0.00
7:35 pm 19:35 Clear 29 -1.5 19 -7 67 67 SW 5 7 30.15 1021 10 16 0.00 0.00
7:55 pm 19:55 Clear 32 0 20 -6.7 61 61 SSW 6 9 30.15 1021 10 16 0.00 0.00
8:15 pm 20:15 Clear 32 -0.1 19 -7 60 60 SSW 6 9 30.15 1021 10 16 0.00 0.00
8:35 pm 20:35 Clear 30 -1.2 19 -7.5 63 63 SSW 7 11 30.12 1020 10 16 0.00 0.00
8:55 pm 20:55 Clear 29 -1.5 19 -7.2 66 66 SW 6 9 30.12 1020 10 16 0.00 0.00
9:15 pm 21:15 Clear 29 -1.5 19 -7 67 67 SW 6 9 30.15 1021 10 16 0.00 0.00
9:35 pm 21:35 Clear 30 -1 20 -6.9 65 65 SSW 6 9 30.15 1021 10 16 0.00 0.00
9:55 pm 21:55 Clear 31 -0.7 19 -7.1 62 62 SSW 7 11 30.15 1021 10 16 0.00 0.00
10:15 pm 22:15 Clear 30 -1.2 19 -7.5 63 63 SSW 7 11 30.15 1021 10 16 0.00 0.00
10:35 pm 22:35 Clear 31 -0.7 19 -7.3 61 61 SSW 6 9 30.15 1021 10 16 0.00 0.00
10:55 pm 22:55 Clear 29 -1.5 19 -7.4 65 65 SSW 5 7 30.15 1021 10 16 0.00 0.00
11:15 pm 23:15 Clear 29 -1.5 19 -7.1 66 66 SSW 6 9 30.15 1021 10 16 0.00 0.00
11:35 pm 23:35 Clear 29 -1.5 20 -6.8 68 68 SSW 6 9 30.15 1021 10 16 0.00 0.00
11:55 pm 23:55 Clear 29 -1.5 21 -6.3 70 70 SW 6 9 30.15 1021 10 16 0.00 0.00

Powered by AerisWeather